DELTA 1 DEB, 7151

Orbit data source: Space-Track

DELTA 1 DEB, 7151 is space debris in SSO originally from a launch on Tue, 06 Nov 1973 UTC launched from the Air Force Western Test Range (AFWTR). Debris objects in space refer to the collection of defunct objects orbiting the Earth. Examples of debris include non-operational satellites, rocket bodies, and fragments generated from explosions, collisions, or faulty payload assembly.

Loading next visibility...
Identifier
7151, 1973-086DR
Orbit
SSO
Country
Flag of USUS
Related business
Manufacturer
Unknown
Mission
Spacecraft
Bus & Motor
Unknown
Mass
Unknown
Launch date (UTC)
1973-11-06 (52 years ago)
Launch vehicle
Unknown
Launch site
Air Force Western Test Range (AFWTR)
Object type
Payload
Rocket body
Debris
Shape & HBR
Unknown shape, 0.1 m
Radar Cross Section
Small (<0.1 m²)

Expand to show TLE details & history
Last TLE update: 3 days ago

TLE from 3 days ago
0 DELTA 1 DEB
1 07151U 73086DR  25351.36014924  .00000076  00000-0  11638-2 0  9997
2 07151 102.7524 116.3904 0150971  47.3995 336.2973 12.17847117312245
Epoch: 2025-12-17T08:38Z
TLE epoch observation values (Epoch: 2025-12-17T08:38:36.894Z)
Latitude
22.40862°
Longitude
-104.82288°
Altitude
1,494.245 km
Speed
7.168 km/s
True Right ascension
07h 24m 14s
True Declination
22° 17' 56"
Sunlit
Object was in full shadow at epoch
Visualization orbit readout
Latitude
Unknown
Longitude
Unknown
Altitude
Unknown
Speed
Unknown
Apparent Right ascension
Unknown
Apparent Declination
Unknown
Sunlit
N/A
Visualization observer readout
Local Sidereal Time
03:34:04
Azimuth
Unknown
Elevation
Unknown
Doppler factor
Unknown
Orbital elements
Apogee altitude
1,720.021 km
Perigee altitude
1,479.14 km
Semi-major axis
7,977.718 km
Eccentricity
0.0151
Inclination
102.7524°
RAAN
116.3904°
Arg. of periapsis
47.3995°
True anomaly
335.58965°
Mean anomaly
336.2973°
Eccentric anomaly
335.94471°
Mean motion
3.04597 °/min
Orbital period
118.19 mins
BSTAR
0.0011638
Loading maneuver chart data...
Computing Atmospheric mass density...
Loading historical data...
Loading historical data...
Loading historical data...
Loading historical data...
Loading historical data...
Loading historical data...
Loading historical data...

Documentation

Showing up to 5 results
|